Weather History for KMTW - March, 2014

Change the Weather History Date:

Saturday, March 1, 2014

  Actual Average Record
Temperature  
Mean Temperature 12 °F -  
Max Temperature 17 °F 36 °F - (-1)
Min Temperature 8 °F 20 °F - (-1)
Degree Days  
Heating Degree Days 52    
Moisture  
Dew Point 4 °F    
Average Humidity 73    
Maximum Humidity 93    
Minimum Humidity 53    
Precipitation  
Precipitation 0.00 in - - ()
Sea Level Pressure  
Sea Level Pressure 30.28 in    
Wind  
Wind Speed 9 mph (NW)    
Max Wind Speed 15 mph    
Max Gust Speed -    
Visibility 6 miles    
Events Snow    
Averages and records for this station are not official NWS values.
T = Trace of Precipitation, MM = Missing Value Source: NWS Daily Summary

Daily Weather History Graph

Daily Weather History Graph

Search for Another Location

Airport or City:

Trip Planner

Search our weather history database for the weather conditions in past years. The results will help you decide how hot, cold, wet, or windy it might be!

Date:

Astronomy

Mar. 01, 2014 Rise Set
Actual Time 6:27 AM CST 5:39 PM CST
Civil Twilight 5:58 AM CST 6:08 PM CST
Nautical Twilight 5:25 AM CST 6:41 PM CST
Astronomical Twilight 4:51 AM CST 7:15 PM CST
Moon 6:19 AM CST (3/1) 6:29 PM CST (3/1)
Length of Visible Light 12h 09m
Length of Day
11h 11m
New Moon, 0% of the Moon is Illuminated
Mar 1
New Moon
Mar 8
First Quarter
Mar 16
Full
Mar 23
Last Quarter
Mar 30
New

Hourly Weather History & Observations

Time (CST) Temp. Windchill Dew Point Humidity Pressure Visibility Wind Dir Wind Speed Gust Speed Precip Events Conditions
12:12 AM 17.6 °F 10.7 °F 15.8 °F 93% 30.02 in 2.5 mi WNW 4.6 mph - 0.00 in Snow Light Snow
12:48 AM 17.6 °F 7.3 °F 14.0 °F 86% 30.03 in 3.0 mi NW 8.1 mph - 0.00 in Snow Light Snow
12:56 AM 17.1 °F 5.0 °F 14.0 °F 88% 30.12 in 2.5 mi NW 10.4 mph - 0.00 in Snow Light Snow
1:18 AM 15.8 °F 2.7 °F 12.2 °F 86% 30.04 in 3.0 mi NW 11.5 mph - 0.00 in Snow Light Snow
1:56 AM 15.1 °F 2.5 °F 10.9 °F 84% 30.13 in 7.0 mi NW 10.4 mph - 0.00 in Snow Light Snow
2:56 AM 14.0 °F 0.5 °F 9.0 °F 80% 30.14 in 9.0 mi NNW 11.5 mph - 0.00 in Snow Light Snow
3:56 AM 12.9 °F -0.9 °F 7.0 °F 77% 30.16 in 10.0 mi NNW 11.5 mph - 0.00 in   Mostly Cloudy
4:56 AM 12.0 °F -2.7 °F 5.0 °F 73% 30.20 in 10.0 mi NNW 12.7 mph - N/A   Overcast
5:56 AM 10.9 °F -2.6 °F 3.9 °F 73% 30.22 in 10.0 mi North 10.4 mph - N/A   Overcast
6:56 AM 10.9 °F -0.8 °F 3.0 °F 70% 30.25 in 9.0 mi NNW 8.1 mph - N/A   Overcast
7:56 AM 10.0 °F -5.2 °F 1.0 °F 67% 30.28 in 10.0 mi NNW 12.7 mph - 0.00 in   Overcast
8:56 AM 10.9 °F -4.7 °F 1.0 °F 64% 30.29 in 10.0 mi North 13.8 mph - N/A   Mostly Cloudy
9:56 AM 10.0 °F -6.5 °F -0.0 °F 64% 30.32 in 10.0 mi North 15.0 mph - N/A   Partly Cloudy
10:56 AM 10.0 °F -4.5 °F -2.0 °F 58% 30.33 in 10.0 mi NNW 11.5 mph - N/A   Overcast
11:56 AM 12.0 °F 1.5 °F -2.0 °F 53% 30.34 in 10.0 mi North 6.9 mph - N/A   Scattered Clouds
12:56 PM 12.0 °F -0.4 °F -2.0 °F 53% 30.33 in 10.0 mi North 9.2 mph - N/A   Mostly Cloudy
1:56 PM 12.0 °F -1.3 °F -0.0 °F 59% 30.34 in 7.0 mi NNW 10.4 mph - 0.00 in Snow Light Snow
2:25 PM 12.2 °F -0.2 °F 1.4 °F 62% 30.27 in 2.5 mi NW 9.2 mph - 0.00 in Snow Light Snow
2:39 PM 12.2 °F -1.0 °F 3.2 °F 67% 30.27 in 1.5 mi NW 10.4 mph - 0.00 in Snow Light Snow
2:56 PM 12.0 °F -1.3 °F 3.9 °F 70% 30.36 in 1.8 mi WNW 10.4 mph - 0.00 in Snow Light Snow
3:34 PM 10.4 °F -2.4 °F 5.0 °F 79% 30.30 in 2.5 mi WNW 9.2 mph - 0.00 in Snow Light Snow
3:48 PM 10.4 °F -0.4 °F 5.0 °F 79% 30.30 in 3.0 mi WNW 6.9 mph - 0.00 in Snow Light Snow
3:56 PM 10.9 °F -1.8 °F 5.0 °F 77% 30.38 in 3.0 mi WNW 9.2 mph - 0.00 in Snow Light Snow
4:14 PM 10.4 °F -1.5 °F 5.0 °F 79% 30.29 in 1.8 mi WNW 8.1 mph - 0.00 in Snow Light Snow
4:26 PM 10.4 °F -2.4 °F 5.0 °F 79% 30.28 in 3.0 mi WNW 9.2 mph - 0.00 in Snow Light Snow
4:50 PM 10.4 °F -2.4 °F 3.2 °F 73% 30.30 in 6.0 mi WNW 9.2 mph - 0.00 in Snow Light Snow
4:56 PM 10.0 °F -2.9 °F 3.9 °F 76% 30.39 in 5.0 mi WNW 9.2 mph - 0.00 in Snow Light Snow
5:51 PM 10.4 °F -1.5 °F 5.0 °F 79% 30.28 in 2.0 mi NW 8.1 mph - 0.00 in Snow Light Snow
5:56 PM 10.0 °F -1.9 °F 3.9 °F 76% 30.37 in 2.0 mi WNW 8.1 mph - 0.00 in Snow Light Snow
6:13 PM 8.6 °F -3.7 °F 5.0 °F 85% 30.30 in 5.0 mi WNW 8.1 mph - 0.00 in Snow Light Snow
6:28 PM 8.6 °F -3.7 °F 3.2 °F 79% 30.30 in 9.0 mi NW 8.1 mph - 0.00 in Snow Light Snow
6:56 PM 9.0 °F -0.9 °F 3.9 °F 80% 30.39 in 10.0 mi NW 5.8 mph - 0.00 in   Overcast
7:56 PM 9.0 °F -4.2 °F 3.9 °F 80% 30.40 in 9.0 mi WNW 9.2 mph - 0.00 in Snow Light Snow
8:56 PM 9.0 °F -3.2 °F 1.9 °F 73% 30.41 in 10.0 mi WNW 8.1 mph - 0.00 in   Mostly Cloudy
9:56 PM 9.0 °F -4.2 °F -0.0 °F 67% 30.43 in 10.0 mi WNW 9.2 mph - N/A   Scattered Clouds
10:56 PM 9.0 °F -4.2 °F -0.9 °F 64% 30.42 in 10.0 mi WNW 9.2 mph - N/A   Mostly Cloudy
11:56 PM 9.0 °F -5.1 °F -0.9 °F 64% 30.41 in 10.0 mi NW 10.4 mph - N/A   Overcast